Change the Weather History Date:

Monday, February 25, 2013

  Actual Average Record
Temperature  
Mean Temperature 46 °F -  
Max Temperature 53 °F 51 °F 64 °F (1992)
Min Temperature 39 °F 38 °F 22 °F (1962)
Degree Days  
Heating Degree Days 19    
Moisture  
Dew Point 34 °F    
Average Humidity 67    
Maximum Humidity 79    
Minimum Humidity 34    
Precipitation  
Precipitation 0.14 in - - ()
Sea Level Pressure  
Sea Level Pressure 30.07 in    
Wind  
Wind Speed 13 mph (South)    
Max Wind Speed 20 mph    
Max Gust Speed 31 mph    
Visibility 10 miles    
Events Rain    
Averages and records for this station are not official NWS values.
T = Trace of Precipitation, MM = Missing Value Source: NWS Daily Summary

Daily Weather History Graph

Daily Weather History Graph

Search for Another Location

Airport or City:

Trip Planner

Search our weather history database for the weather conditions in past years. The results will help you decide how hot, cold, wet, or windy it might be!

Date:

Astronomy

Feb. 25, 2013 Rise Set
Actual Time 6:56 AM PST 5:48 PM PST
Civil Twilight 6:25 AM PST 6:19 PM PST
Nautical Twilight 5:49 AM PST 6:55 PM PST
Astronomical Twilight 5:14 AM PST 7:31 PM PST
Moon 6:12 PM PST (2/25) 6:26 AM PST (2/25)
Length of Visible Light 11h 54m
Length of Day
10h 52m
Full, 100% of the Moon is Illuminated
Feb 25
Full
Feb 25
Full
Mar 4
Last Quarter
Mar 11
New
Mar 19
First Quarter

Hourly Weather History & Observations

Time (PST) Temp. Windchill Dew Point Humidity Pressure Visibility Wind Dir Wind Speed Gust Speed Precip Events Conditions
12:13 AM 44.6 °F 37.2 °F 35.6 °F 71% 29.95 in 7.0 mi South 17.3 mph 26.5 mph 0.02 in Rain Light Rain
12:53 AM 44.1 °F 37.4 °F 36.0 °F 73% 29.94 in 9.0 mi South 13.8 mph 19.6 mph 0.06 in Rain Light Rain
1:53 AM 44.1 °F 39.0 °F 37.0 °F 76% 29.91 in 8.0 mi South 9.2 mph - 0.06 in Rain Light Rain
2:53 AM 44.1 °F 38.1 °F 37.9 °F 79% 29.90 in 10.0 mi South 11.5 mph 21.9 mph 0.02 in   Overcast
3:53 AM 44.1 °F 37.7 °F 37.9 °F 79% 29.91 in 10.0 mi South 12.7 mph 20.7 mph N/A   Mostly Cloudy
4:53 AM 44.1 °F 36.8 °F 37.0 °F 76% 29.94 in 10.0 mi South 16.1 mph 25.3 mph N/A   Overcast
5:53 AM 44.1 °F 37.7 °F 37.0 °F 76% 29.94 in 10.0 mi South 12.7 mph 29.9 mph N/A   Mostly Cloudy
6:53 AM 44.1 °F 37.1 °F 36.0 °F 73% 29.96 in 10.0 mi SSW 15.0 mph 24.2 mph N/A   Overcast
7:53 AM 43.0 °F 34.5 °F 35.1 °F 74% 29.97 in 10.0 mi SSW 19.6 mph 31.1 mph N/A   Mostly Cloudy
8:34 AM 42.8 °F 35.1 °F 35.6 °F 76% 29.98 in 10.0 mi SSW 16.1 mph 27.6 mph N/A   Scattered Clouds
8:53 AM 44.1 °F 38.1 °F 36.0 °F 73% 29.99 in 10.0 mi SW 11.5 mph 24.2 mph N/A   Mostly Cloudy
9:18 AM 44.6 °F 39.2 °F 35.6 °F 71% 30.00 in 10.0 mi SSW 10.4 mph 24.2 mph N/A   Mostly Cloudy
9:53 AM 44.6 °F 38.1 °F 35.6 °F 71% 30.01 in 10.0 mi SSW 13.8 mph 28.8 mph N/A   Mostly Cloudy
10:53 AM 46.0 °F 39.3 °F 34.0 °F 63% 30.03 in 10.0 mi SSW 16.1 mph 28.8 mph N/A   Clear
11:53 AM 48.0 °F - 33.1 °F 56% 30.06 in 10.0 mi SSW 12.7 mph 21.9 mph N/A   Mostly Cloudy
12:53 PM 52.0 °F - 33.1 °F 49% 30.07 in 10.0 mi SSW 15.0 mph 28.8 mph N/A   Mostly Cloudy
1:53 PM 52.0 °F - 30.9 °F 45% 30.09 in 10.0 mi SW 16.1 mph 27.6 mph N/A   Scattered Clouds
2:53 PM 53.1 °F - 28.0 °F 38% 30.10 in 10.0 mi SW 12.7 mph 20.7 mph N/A   Scattered Clouds
3:53 PM 52.0 °F - 24.1 °F 34% 30.13 in 10.0 mi WSW 12.7 mph 20.7 mph N/A   Scattered Clouds
4:53 PM 48.0 °F - 30.9 °F 52% 30.16 in 10.0 mi SW 10.4 mph 17.3 mph N/A   Scattered Clouds
5:53 PM 45.0 °F 40.6 °F 32.0 °F 60% 30.18 in 10.0 mi SSE 8.1 mph - N/A   Scattered Clouds
6:53 PM 44.6 °F 40.7 °F 32.0 °F 61% 30.21 in 10.0 mi SE 6.9 mph - N/A   Partly Cloudy
7:53 PM 41.0 °F 36.4 °F 32.0 °F 70% 30.24 in 10.0 mi SSE 6.9 mph - N/A   Partly Cloudy
8:53 PM 41.0 °F 35.8 °F 32.0 °F 70% 30.27 in 10.0 mi SSE 8.1 mph - N/A   Clear
9:53 PM 39.9 °F 33.4 °F 33.1 °F 77% 30.29 in 10.0 mi SE 10.4 mph - N/A   Partly Cloudy
10:53 PM 39.0 °F 31.8 °F 32.0 °F 76% 30.30 in 10.0 mi SE 11.5 mph - N/A   Clear
11:53 PM 39.9 °F 33.9 °F 33.1 °F 77% 30.32 in 10.0 mi SE 9.2 mph - N/A   Mostly Cloudy